Hourly Data Report for January 14, 2017

All times are specified in Local Standard Time (LST). Add 1 hour to adjust for Daylight Saving Time where and when it is observed.

ST LEONARD CS
NEW BRUNSWICK

47°09'28.050" N
67°49'55.014" W
245.00 m
810I001
71019
WIY

Download Data

Hourly Data (January 2017)
Hourly Data Report for January 14, 2017
Temp Definition
°C
Dew Point Temp Definition
°C
Rel Hum Definition
%
Wind Dir Definition
10's deg

Wind Spd Definition
km/h
Visibility Definition
km
Stn Press Definition
kPa
Hmdx Definition


Wind Chill Definition


Weather Definition


TIME
00:00 -17.7 -23.0 63 31 27   100.20   -29 LegendNANA
01:00 -18.2 -23.5 63 31 27   100.21   -30 LegendNANA
02:00 -19.1 -23.6 67 30 21   100.22   -30 LegendNANA
03:00 -19.2 -24.0 66 30 35   100.28   -32 LegendNANA
04:00 -20.0 -24.5 67 30 22   100.28   -31 LegendNANA
05:00 -20.7 -25.0 69 30 15   100.30   -30 LegendNANA
06:00 -21.6 -25.0 74 27 12   100.32   -30 LegendNANA
07:00 -22.7 -25.4 78 28 10   100.31   -30 LegendNANA
08:00 -23.9 -25.9 83 27 6   100.32   -30 LegendNANA
09:00 -22.6 -25.2 80 28 8   100.35   -29 LegendNANA
10:00 -20.9 -24.3 75 29 18   100.30   -31 LegendNANA
11:00 -19.7 -23.8 70 28 19   100.24   -30 LegendNANA
12:00 -18.5 -24.1 61 27 19   100.23   -28 LegendNANA
13:00 -17.5 -23.5 59 28 14   100.10   -26 LegendNANA
14:00 -16.4 -23.5 54 25 14   99.96   -24 LegendNANA
15:00 -15.9 -22.9 54 24 10   99.82   -22 LegendNANA
16:00 -15.5 -23.3 51 25 9   99.74   -21 LegendNANA
17:00 -16.3 -24.2 51 24 10   99.64   -23 LegendNANA
18:00 -16.9 -23.8 55 19 9   99.55   -23 LegendNANA
19:00 -17.3 -23.7 57 16 9   99.43   -24 LegendNANA
20:00 -16.6 -22.2 62 19 15   99.28   -25 LegendNANA
21:00 -15.9 -22.1 59 18 12   99.22   -23 LegendNANA
22:00 -15.4 -21.1 62 20 11   99.13   -22 LegendNANA
23:00 -15.0 -21.1 60 23 7   99.04   -20 LegendNANA

Notes on Data Quality.

Legend

  • E = Estimated
  • M = Missing
  • NA = Not Available
  • ‡ = Partner data that is not subject to review by the National Climate Archives
Date modified: